#timestamp,LO_Frequency,Hit,StdDev 
1578188395.6,286047028.3,P
1578188415.4,286047028.4,P
1578188435.2,286047027.8,P
1578188455.1,286047025.4,Y
1578188456.0,286047025.4,P
1578188475.8,286046998.5,N
1578188495.7,286046999.1,N
1578188515.5,286046999.6,N
1578188535.3,286046997.3,N
1578188555.2,286046997.4,N
1578188575.0,286046997.4,N
1578188575.9,286046997.4,N
1578188595.8,286046997.5,N
1578188615.6,286046996.6,N
1578188635.4,286046998.2,N
1578188685.3,286047000.3,E
1578188695.2,286047000.3,N
1578188715.1,286047000.5,P
1578188716.0,286047000.5,P
1578188735.8,286047000.6,Y
1578188755.6,286046999.9,P
1578188775.5,286047000.1,N
1578188795.3,286047001.8,P
1578188815.1,286047003.9,Y
1578188835.9,286047002.9,P
1578188855.7,286047003.2,N
1578188875.6,286047005.9,P
1578188895.4,286047005.8,Y
1578188915.2,286047002.2,P
1578188935.1,286047002.4,P
1578188936.0,286047002.4,P
1578188955.8,286047001.7,Y
1578188975.7,286047000.9,P
1578188995.5,286047000.3,N
1578189015.3,286046998.1,N
1578189035.2,286046999.1,N
1578189055.9,286046999.0,N
1578189075.7,286046998.1,N
1578189095.6,286047001.2,N
1578189115.4,286047001.0,N
1578189135.2,286047000.6,N
1578189155.1,286047002.8,N
1578189156.0,286047002.8,N
1578189175.8,286047002.2,N
1578189195.7,286047003.5,N
1578189215.5,286047003.3,N
1578189235.3,286047003.6,N
1578189255.2,286047003.1,N
1578189275.0,286047011.9,Y
1578189275.9,286047006.0,P
1578189295.8,286047004.0,N
1578189315.6,286047004.0,N
1578189335.4,286047002.2,N
1578189355.3,286047001.5,N
1578189375.1,286047002.0,N
1578189395.8,286047001.3,N
1578189415.7,286047004.3,N
1578189435.5,286047001.4,N
1578189455.4,286047001.5,N
1578189475.2,286047004.0,N
1578189495.0,286047003.7,N
1578189495.9,286047003.7,N
1578189515.8,286047004.2,N
1578189535.6,286047003.0,N
1578189555.4,286047005.9,Y
1578189575.3,286047002.3,P
1578189595.1,286047001.9,P
